sat.trackr.live / text

‹ back to catalog

STARLINK-35024

NORAD 65410 · 2025-192G

PAYLOAD ACTIVE UNKNOWN

§ Identity

Operator
Country
US
Launch date
2025-08-31
Launch site
AFETR
Launch vehicle
Mass (kg)
RCS (m²)

Purposes: comms

External: N2YO · Heavens-Above · Gunter

§ Orbital elements

Epoch: 2026-05-24T17:51:59.396544Z

Period
94.01 min
Inclination
53.1560°
Eccentricity
0.0000849
Mean motion
15.31753109 rev/d
Perigee alt
470.0 km
Apogee alt
471.2 km
Semi-major
6,848.7 km
B*
1.6975e-3
RAAN
238.7266°
Arg perigee
72.2689°
Mean anomaly
287.8405°
Rev number
4,103

§ Raw data

STARLINK-350241 65410U 25192G   26144.74443746  .00052771  00000+0  16975-2 0  99922 65410  53.1560 238.7266 0000849  72.2689 287.8405 15.31753109 41034

JSON: /api/v1/satellites/65410 · /tle

For live sub-satellite position, see the globe view (requires WebGL).

§ Visibility from observer

Set your observer location to see the next 7 days of passes ≥ 10°. The values pass through the URL so the page stays shareable.

No JS? Fill the form by hand. The geolocation button needs JavaScript.